This demonstration page uses our WeatherBlox Daily Observations layout. Learn more.

41.55636, -103.73856

Hourly Observations for December 2, 2015

Temp ( °F °C ) Dew Point ( °F °C ) Humidity (%) Winds ( mph kmh ) Pressure ( in mb ) Visibility ( mi km ) Precip ( " mm )
12:53 am 00:53 Clear 27 -2.8 14 -10 58 58 WNW 10 17 30.14 1021 10 16.0934 0 0
1:53 am 01:53 Clear 23 -5 14 -10 68 68 NW 7 11 30.16 1021 10 16.0934 0 0
2:53 am 02:53 Clear 23 -5 13 -10.6 65 65 NW 14 22 30.16 1021 10 16.0934 0 0
3:53 am 03:53 Clear 22 -5.6 13 -10.6 68 68 NW 13 20 30.16 1022 10 16.0934 0 0
4:53 am 04:53 Clear 21 -6.1 12 -11.1 68 68 NW 13 20 30.19 1022 10 16.0934 0 0
5:53 am 05:53 Clear 22 -5.6 12 -11.1 66 66 NW 16 26 30.21 1023 10 16.0934 0 0
6:53 am 06:53 Clear 21 -6.1 12 -11.1 68 68 WNW 12 19 30.22 1023 10 16.0934 0 0
7:53 am 07:53 Sunny 24 -4.4 13 -10.6 62 62 NW 13 20 30.23 1024 10 16.0934 0 0
8:53 am 08:53 Sunny 31 -0.6 14 -10 49 49 WNW 8 13 30.23 1024 10 16.0934 0 0
9:53 am 09:53 Sunny 38 3.3 14 -10 37 37 WNW 13 20 30.21 1023 10 16.0934 0 0
10:53 am 10:53 Sunny 43 6.1 12 -11.1 28 28 W 12 19 30.19 1022 10 16.0934 0 0
11:53 am 11:53 Sunny 47 8.3 12 -11.1 24 24 WNW 13 20 30.15 1021 10 16.0934 0 0
12:53 pm 12:53 Sunny 48 8.9 12 -11.1 23 23 W 14 22 30.15 1021 10 16.0934 0 0
1:53 pm 13:53 Sunny 49 9.4 12 -11.1 22 22 WNW 10 17 30.16 1021 10 16.0934 0 0
2:53 pm 14:53 Sunny 48 8.9 13 -10.6 24 24 NW 10 17 30.15 1021 10 16.0934 0 0
3:53 pm 15:53 Sunny 44 6.7 14 -10 30 30 W 9 15 30.19 1022 10 16.0934 0 0
4:53 pm 16:53 Clear 36 2.2 15 -9.4 42 42 W 8 13 30.21 1023 10 16.0934 0 0
5:53 pm 17:53 Clear 33 0.6 17 -8.3 52 52 WNW 7 11 30.22 1023 10 16.0934 0 0
6:53 pm 18:53 Clear 27 -2.8 16 -8.9 63 63 NW 6 9 30.25 1025 10 16.0934 0 0
7:53 pm 19:53 Clear 26 -3.3 15 -9.4 63 63 N 5 7 30.26 1025 10 16.0934 0 0
8:53 pm 20:53 Clear 20 -6.7 12 -11.1 71 71 Calm 30.25 1025 10 16.0934 0 0
9:53 pm 21:53 Clear 20 -6.7 13 -10.6 74 74 N 7 11 30.23 1024 10 16.0934 0 0
10:53 pm 22:53 Clear 19 -7.2 12 -11.1 74 74 N 5 7 30.22 1023 10 16.0934 0 0
11:53 pm 23:53 Clear 19 -7.2 12 -11.1 74 74 NNE 3 6 30.21 1023 10 16.0934 0 0

Powered by AerisWeather